FENGYUN 1C DEB, 33674

Orbit data source: Space-Track

FENGYUN 1C DEB, 33674 is space debris in SSO originally from a launch on Mon, 10 May 1999 UTC launched from the Taiyaun Space Center, China (TSC). Fengyun 1C debris stems from the Chinese weather satellite Fengyun-1C, which was intentionally destroyed by a Chinese anti-satellite missile in 2007. This event dramatically increased the amount of space debris, with thousands of trackable fragments posing hazards to satellites and human spaceflight. The Fengyun 1C debris cloud has become a focal point in discussions about space sustainability and the need for international regulations to prevent the creation of new debris.

Loading next visibility...
Identifier
33674, 1999-025DFK
Orbit
SSO
Country
Flag of CNCN / PRC
Related business
Manufacturer
Unknown
Mission
Spacecraft
Bus & Motor
Unknown
Mass
Unknown
Launch date (UTC)
1999-05-10 (27 years ago)
Launch vehicle
Unknown
Launch site
Taiyaun Space Center, China (TSC)
Object type
Payload
Rocket body
Debris
Shape & HBR
Unknown shape, 0.1 m
Radar Cross Section
Medium (>0.1 m² and <1 m²)

Expand to show TLE details & history
Last TLE update: 1 day ago

TLE from 1 day ago
0 FENGYUN 1C DEB
1 33674U 99025DFK 26207.02973955  .00001383  00000-0  12132-2 0  9991
2 33674  98.5952 240.7683 0208000 354.8318   5.0688 13.77684508914667
Epoch: 2026-07-26T00:42Z
TLE epoch observation values (Epoch: 2026-07-26T00:42:49.497Z)
Latitude
-0.00002°
Longitude
-73.67146°
Altitude
822.682 km
Speed
7.518 km/s
True Right ascension
16h 03m 04s
True Declination
0° 00' 00"
Sunlit
Object was in daylight at epoch
Visualization orbit readout
Latitude
Unknown
Longitude
Unknown
Altitude
Unknown
Speed
Unknown
Apparent Right ascension
Unknown
Apparent Declination
Unknown
Sunlit
N/A
Visualization observer readout
Local Sidereal Time
01:37:13
Azimuth
Unknown
Elevation
Unknown
Doppler factor
Unknown
Orbital elements
Apogee altitude
1,122.146 km
Perigee altitude
816.492 km
Semi-major axis
7,347.456 km
Eccentricity
0.0208
Inclination
98.5952°
RAAN
240.7683°
Arg. of periapsis
354.8318°
True anomaly
5.28498°
Mean anomaly
5.0688°
Eccentric anomaly
5.17632°
Mean motion
3.44618 °/min
Orbital period
104.46 mins
BSTAR
0.0012132
Loading maneuver chart data...
Computing Atmospheric mass density...

Documentation

Showing up to 5 results
|